| time (UTC) | temp F | wind direction | speed knots | gust knots | rain 1hr in | rain 24hr in | rain mn in | humidity % | barometer mb |
| 20260505025005 | 56 | 0.0 | 0.0 | 0.00 | 0.00 | 0.00 | 63 | 1011.7 | |
| 20260505024504 | 56 | 0.0 | 0.0 | 0.00 | 0.00 | 0.00 | 62 | 1011.7 | |
| 20260505023947 | 56 | 0.0 | 0.0 | 0.00 | 0.00 | 0.00 | 62 | 1011.8 | |
| 20260505023435 | 56 | 0.0 | 0.0 | 0.00 | 0.00 | 0.00 | 61 | 1011.8 | |
| 20260505023151 | 56 | 0.0 | 0.0 | 0.00 | 0.00 | 0.00 | 61 | 1011.8 | |
| 20260505022417 | 57 | 0.0 | 0.0 | 0.00 | 0.00 | 0.00 | 60 | 1011.8 | |
| 20260505021904 | 57 | 0.0 | 0.0 | 0.00 | 0.00 | 0.00 | 60 | 1011.9 | |
| 20260505021343 | 57 | 0.0 | 0.0 | 0.00 | 0.00 | 0.00 | 59 | 1012.0 | |
| 20260505021028 | 57 | 0.0 | 0.0 | 0.00 | 0.00 | 0.00 | 58 | 1012.0 | |
| 20260505020305 | 57 | 0.0 | 0.0 | 0.00 | 0.00 | 0.00 | 58 | 1011.9 | |
| 20260505015801 | 57 | 0.0 | 0.0 | 0.00 | 0.00 | 0.00 | 57 | 1011.8 | |
| 20260505015517 | 58 | 0.0 | 0.0 | 0.00 | 0.00 | 0.00 | 57 | 1011.8 | |
| 20260505014743 | 58 | 0.0 | 0.0 | 0.00 | 0.00 | 0.00 | 56 | 1011.8 | |
| 20260505014222 | 58 | 0.0 | 0.0 | 0.00 | 0.00 | 0.00 | 56 | 1011.8 | |
| 20260505013705 | 58 | 0.0 | 0.0 | 0.00 | 0.00 | 0.00 | 55 | 1011.8 | |
| 20260505013152 | 58 | 0.0 | 0.0 | 0.00 | 0.00 | 0.00 | 55 | 1011.7 | |
| 20260505012629 | 59 | 0.0 | 0.0 | 0.00 | 0.00 | 0.00 | 54 | 1011.7 | |
| 20260505012113 | 59 | 0.0 | 0.0 | 0.00 | 0.00 | 0.00 | 53 | 1011.6 | |
| 20260505011613 | 59 | 0.0 | 0.0 | 0.00 | 0.00 | 0.00 | 53 | 1011.5 | |
| 20260505011103 | 59 | 0.0 | 0.0 | 0.00 | 0.00 | 0.00 | 53 | 1011.4 | |
| 20260505010559 | 59 | 0.0 | 0.0 | 0.00 | 0.00 | 0.00 | 53 | 1011.4 | |
| 20260505010033 | 60 | 0.0 | 0.0 | 0.00 | 0.00 | 0.00 | 52 | 1011.3 | |
| 20260505005525 | 60 | 0.0 | 0.0 | 0.00 | 0.00 | 0.00 | 52 | 1011.2 | |
| 20260505005017 | 60 | 0.0 | 0.0 | 0.00 | 0.00 | 0.00 | 51 | 1011.1 | |
| 20260505004509 | 60 | 0.0 | 0.0 | 0.00 | 0.00 | 0.00 | 50 | 1010.9 | |
| 20260505003951 | 61 | 0.0 | 0.0 | 0.00 | 0.00 | 0.00 | 50 | 1010.8 | |
| 20260505003449 | 61 | 0.0 | 0.0 | 0.00 | 0.00 | 0.00 | 49 | 1010.7 | |
| 20260505002941 | 61 | 0.0 | 0.0 | 0.00 | 0.00 | 0.00 | 49 | 1010.6 | |
| 20260505002423 | 61 | 0.0 | 0.0 | 0.00 | 0.00 | 0.00 | 48 | 1010.4 | |
| 20260505001922 | 62 | 0.0 | 0.0 | 0.00 | 0.00 | 0.00 | 49 | 1010.3 | |
| 20260505001422 | 62 | 0.0 | 0.0 | 0.00 | 0.00 | 0.00 | 48 | 1010.1 | |
| 20260505000903 | 62 | 0.0 | 0.0 | 0.00 | 0.00 | 0.00 | 48 | 1010.0 | |
| 20260505000406 | 62 | 0.0 | 0.0 | 0.00 | 0.00 | 0.00 | 48 | 1009.8 | |
| 20260504235901 | 63 | 0.0 | 0.0 | 0.00 | 0.00 | 0.00 | 48 | 1009.8 | |
| 20260504235401 | 63 | 133 | 0.9 | 1.7 | 0.00 | 0.00 | 0.00 | 47 | 1009.7 |
| 20260504234903 | 63 | 133 | 0.9 | 3.5 | 0.00 | 0.00 | 0.00 | 46 | 1009.6 |
| 20260504234339 | 64 | 144 | 0.9 | 8.7 | 0.00 | 0.00 | 0.00 | 47 | 1009.6 |
| 20260504233837 | 64 | 143 | 0.9 | 8.7 | 0.00 | 0.00 | 0.00 | 46 | 1009.5 |
| 20260504233322 | 64 | 3 | 0.9 | 4.3 | 0.00 | 0.00 | 0.00 | 46 | 1009.5 |
| 20260504232822 | 64 | 272 | 0.9 | 3.5 | 0.00 | 0.00 | 0.00 | 45 | 1009.4 |
| 20260504232322 | 65 | 262 | 0.9 | 3.5 | 0.00 | 0.00 | 0.00 | 44 | 1009.4 |
| 20260504231821 | 65 | 10 | 0.9 | 3.5 | 0.00 | 0.00 | 0.00 | 45 | 1009.3 |
| 20260504231322 | 65 | 185 | 0.0 | 2.6 | 0.00 | 0.00 | 0.00 | 44 | 1009.2 |
| 20260504230822 | 66 | 246 | 0.9 | 1.7 | 0.00 | 0.00 | 0.00 | 44 | 1009.1 |
| 20260504230321 | 66 | 134 | 0.9 | 3.5 | 0.00 | 0.00 | 0.00 | 44 | 1009.0 |
| 20260504225821 | 66 | 29 | 0.9 | 5.2 | 0.00 | 0.00 | 0.00 | 43 | 1009.0 |
| 20260504225321 | 67 | 29 | 0.9 | 5.2 | 0.00 | 0.00 | 0.00 | 43 | 1008.8 |
| 20260504224821 | 67 | 32 | 0.9 | 3.5 | 0.00 | 0.00 | 0.00 | 42 | 1008.7 |
| 20260504224321 | 67 | 78 | 0.9 | 4.3 | 0.00 | 0.00 | 0.00 | 41 | 1008.7 |
| 20260504223813 | 68 | 353 | 0.9 | 4.3 | 0.00 | 0.00 | 0.00 | 40 | 1008.6 |
| 20260504223801 | 68 | 318 | 0.9 | 4.3 | 0.00 | 0.00 | 0.00 | 39 | 1008.5 |
| 20260504223250 | 68 | 9 | 0.9 | 4.3 | 0.00 | 0.00 | 0.00 | 39 | 1008.5 |
| 20260504222305 | 69 | 128 | 0.9 | 4.3 | 0.00 | 0.00 | 0.00 | 40 | 1008.6 |
| 20260504221804 | 69 | 171 | 0.0 | 3.5 | 0.00 | 0.00 | 0.00 | 39 | 1008.5 |
| 20260504221301 | 69 | 32 | 0.9 | 4.3 | 0.00 | 0.00 | 0.00 | 38 | 1008.5 |
| 20260504220759 | 69 | 352 | 0.9 | 4.3 | 0.00 | 0.00 | 0.00 | 38 | 1008.4 |
| 20260504220257 | 70 | 121 | 0.9 | 3.5 | 0.00 | 0.00 | 0.00 | 37 | 1008.5 |
| 20260504215754 | 70 | 166 | 0.9 | 4.3 | 0.00 | 0.00 | 0.00 | 36 | 1008.4 |
| 20260504215250 | 71 | 51 | 0.9 | 4.3 | 0.00 | 0.00 | 0.00 | 36 | 1008.5 |
| 20260504214749 | 71 | 80 | 0.0 | 4.3 | 0.00 | 0.00 | 0.00 | 35 | 1008.4 |
| 20260504214517 | 72 | 21 | 0.0 | 4.3 | 0.00 | 0.00 | 0.00 | 34 | 1008.5 |
| 20260504213742 | 72 | 55 | 0.0 | 2.6 | 0.00 | 0.00 | 0.00 | 33 | 1008.5 |
| 20260504213234 | 73 | 109 | 0.0 | 2.6 | 0.00 | 0.00 | 0.00 | 32 | 1008.4 |
| 20260504212721 | 73 | 139 | 0.0 | 2.6 | 0.00 | 0.00 | 0.00 | 31 | 1008.4 |
| 20260504212221 | 73 | 185 | 0.9 | 3.5 | 0.00 | 0.00 | 0.00 | 33 | 1008.3 |
| 20260504211721 | 73 | 10 | 0.9 | 4.3 | 0.00 | 0.00 | 0.00 | 31 | 1008.3 |
| 20260504211222 | 73 | 85 | 0.9 | 4.3 | 0.00 | 0.00 | 0.00 | 31 | 1008.4 |
| 20260504210721 | 73 | 68 | 0.9 | 4.3 | 0.00 | 0.00 | 0.00 | 31 | 1008.4 |
| 20260504210221 | 74 | 326 | 0.9 | 5.2 | 0.00 | 0.00 | 0.00 | 30 | 1008.3 |
| 20260504205943 | 74 | 316 | 0.9 | 5.2 | 0.00 | 0.00 | 0.00 | 31 | 1008.3 |
| 20260504205221 | 74 | 209 | 0.9 | 2.6 | 0.00 | 0.00 | 0.00 | 31 | 1008.4 |
| 20260504204721 | 74 | 1 | 0.9 | 7.8 | 0.00 | 0.00 | 0.00 | 30 | 1008.3 |
| 20260504204221 | 74 | 348 | 1.7 | 7.8 | 0.00 | 0.00 | 0.00 | 31 | 1008.4 |
| 20260504203721 | 74 | 83 | 0.9 | 5.2 | 0.00 | 0.00 | 0.00 | 30 | 1008.4 |
| 20260504203221 | 73 | 57 | 0.9 | 4.3 | 0.00 | 0.00 | 0.00 | 31 | 1008.4 |
| 20260504202721 | 73 | 57 | 0.9 | 4.3 | 0.00 | 0.00 | 0.00 | 33 | 1008.4 |
| 20260504202221 | 73 | 20 | 0.9 | 3.5 | 0.00 | 0.00 | 0.00 | 31 | 1008.3 |
| 20260504201720 | 73 | 31 | 0.9 | 4.3 | 0.00 | 0.00 | 0.00 | 31 | 1008.4 |
| 20260504201221 | 73 | 255 | 0.9 | 4.3 | 0.00 | 0.00 | 0.00 | 30 | 1008.4 |
| 20260504200721 | 72 | 54 | 0.9 | 4.3 | 0.00 | 0.00 | 0.00 | 31 | 1008.4 |
| 20260504200221 | 72 | 83 | 0.9 | 4.3 | 0.00 | 0.00 | 0.00 | 32 | 1008.5 |
| 20260504195721 | 72 | 51 | 1.7 | 3.5 | 0.00 | 0.00 | 0.00 | 29 | 1008.7 |
| 20260504195221 | 72 | 13 | 1.7 | 3.5 | 0.00 | 0.00 | 0.00 | 29 | 1008.6 |
| 20260504194720 | 72 | 35 | 0.9 | 4.3 | 0.00 | 0.00 | 0.00 | 29 | 1008.6 |
| 20260504194216 | 72 | 10 | 0.9 | 6.1 | 0.00 | 0.00 | 0.00 | 31 | 1008.7 |
| 20260504193710 | 72 | 79 | 0.0 | 3.5 | 0.00 | 0.00 | 0.00 | 31 | 1008.6 |
| 20260504193207 | 72 | 58 | 0.9 | 3.5 | 0.00 | 0.00 | 0.00 | 32 | 1008.6 |
| 20260504192705 | 72 | 338 | 0.9 | 6.1 | 0.00 | 0.00 | 0.00 | 29 | 1008.5 |
| 20260504192207 | 72 | 349 | 0.9 | 6.1 | 0.00 | 0.00 | 0.00 | 31 | 1008.5 |
| 20260504191700 | 72 | 39 | 0.9 | 5.2 | 0.00 | 0.00 | 0.00 | 30 | 1008.4 |
| 20260504191158 | 72 | 327 | 0.9 | 5.2 | 0.00 | 0.00 | 0.00 | 30 | 1008.6 |
| 20260504190655 | 72 | 354 | 0.9 | 4.3 | 0.00 | 0.00 | 0.00 | 30 | 1008.7 |
| 20260504190156 | 73 | 344 | 0.9 | 5.2 | 0.00 | 0.00 | 0.00 | 29 | 1008.8 |
| 20260504185656 | 73 | 338 | 0.9 | 5.2 | 0.00 | 0.00 | 0.00 | 30 | 1008.8 |
| 20260504185156 | 73 | 342 | 0.9 | 3.5 | 0.00 | 0.00 | 0.00 | 30 | 1008.9 |
| 20260504184645 | 73 | 340 | 0.9 | 4.3 | 0.00 | 0.00 | 0.00 | 32 | 1008.6 |
| 20260504184146 | 73 | 324 | 0.9 | 5.2 | 0.00 | 0.00 | 0.00 | 30 | 1008.8 |
| 20260504183858 | 72 | 10 | 1.7 | 5.2 | 0.00 | 0.00 | 0.00 | 32 | 1009.0 |
| 20260504183138 | 72 | 347 | 1.7 | 6.1 | 0.00 | 0.00 | 0.00 | 29 | 1008.8 |
| 20260504182637 | 72 | 20 | 0.9 | 6.1 | 0.00 | 0.00 | 0.00 | 28 | 1008.8 |
| 20260504182136 | 72 | 315 | 1.7 | 4.3 | 0.00 | 0.00 | 0.00 | 30 | 1008.9 |
| 20260504181623 | 72 | 334 | 1.7 | 4.3 | 0.00 | 0.00 | 0.00 | 30 | 1008.9 |
| 20260504181123 | 72 | 65 | 0.9 | 3.5 | 0.00 | 0.00 | 0.00 | 32 | 1009.0 |
| 20260504180623 | 73 | 343 | 0.9 | 3.5 | 0.00 | 0.00 | 0.00 | 30 | 1009.1 |
| 20260504180123 | 72 | 79 | 0.9 | 4.3 | 0.00 | 0.00 | 0.00 | 31 | 1009.1 |
| 20260504175836 | 72 | 3 | 0.9 | 5.2 | 0.00 | 0.00 | 0.00 | 33 | 1009.0 |
| 20260504174607 | 72 | 332 | 0.9 | 5.2 | 0.00 | 0.00 | 0.00 | 31 | 1009.2 |
| 20260504174107 | 71 | 356 | 1.7 | 5.2 | 0.00 | 0.00 | 0.00 | 34 | 1009.2 |
| 20260504173604 | 71 | 330 | 1.7 | 5.2 | 0.00 | 0.00 | 0.00 | 32 | 1009.4 |
| 20260504173325 | 71 | 10 | 0.9 | 4.3 | 0.00 | 0.00 | 0.00 | 32 | 1009.4 |
| 20260504172603 | 71 | 14 | 1.7 | 3.5 | 0.00 | 0.00 | 0.00 | 30 | 1009.3 |
| 20260504172104 | 71 | 37 | 1.7 | 3.5 | 0.00 | 0.00 | 0.00 | 32 | 1009.3 |
| 20260504171838 | 71 | 336 | 0.9 | 3.5 | 0.00 | 0.00 | 0.00 | 32 | 1009.3 |
| 20260504171102 | 71 | 324 | 0.9 | 7.8 | 0.00 | 0.00 | 0.00 | 35 | 1009.3 |
| 20260504170604 | 70 | 42 | 1.7 | 7.8 | 0.00 | 0.00 | 0.00 | 32 | 1009.2 |
| 20260504170104 | 70 | 208 | 1.7 | 6.1 | 0.00 | 0.00 | 0.00 | 32 | 1009.3 |
| 20260504151025 | 65 | 347 | 1.7 | 5.2 | 0.00 | 0.00 | 0.00 | 39 | 1010.7 |
| 20260504150525 | 65 | 11 | 1.7 | 5.2 | 0.00 | 0.00 | 0.00 | 39 | 1010.6 |
| 20260504150236 | 64 | 2 | 1.7 | 6.1 | 0.00 | 0.00 | 0.00 | 42 | 1010.7 |
| 20260504150115 | 65 | 338 | 1.7 | 6.1 | 0.00 | 0.00 | 0.00 | 41 | 1010.8 |
| 20260504141242 | 61 | 270 | 0.9 | 4.3 | 0.00 | 0.02 | 0.00 | 49 | 1011.1 |
| 20260504140522 | 60 | 219 | 0.9 | 4.3 | 0.00 | 0.02 | 0.00 | 46 | 1011.3 |
| 20260504130522 | 55 | 60 | 0.0 | 2.6 | 0.00 | 0.02 | 0.00 | 57 | 1011.8 |
| 20260504110422 | 45 | 0.0 | 0.0 | 0.00 | 0.02 | 0.00 | 64 | 1012.0 | |
| 20260504100301 | 45 | 0.0 | 0.0 | 0.00 | 0.02 | 0.00 | 61 | 1012.0 | |
| 20260504081800 | 44 | 0.0 | 0.0 | 0.00 | 0.02 | 0.00 | 61 | 1011.7 | |
| 20260504080811 | 44 | 0.0 | 0.0 | 0.00 | 0.02 | 0.00 | 61 | 1011.8 | |
| 20260504080525 | 44 | 0.0 | 0.0 | 0.00 | 0.02 | 0.00 | 62 | 1011.8 | |
| 20260504050603 | 38 | 0.0 | 0.0 | 0.00 | 0.02 | 0.00 | 77 | 1011.5 | |
| 20260504045559 | 37 | 0.0 | 0.0 | 0.00 | 0.02 | 0.00 | 78 | 1011.6 | |
| 20260504045048 | 37 | 0.0 | 0.0 | 0.00 | 0.02 | 0.00 | 78 | 1011.6 | |
| 20260504044545 | 36 | 0.0 | 0.0 | 0.00 | 0.02 | 0.00 | 77 | 1011.6 | |
| 20260504044003 | 36 | 0.0 | 0.0 | 0.00 | 0.02 | 0.00 | 77 | 1011.6 | |
| 20260504043500 | 36 | 0.0 | 0.0 | 0.00 | 0.02 | 0.00 | 77 | 1011.6 | |
| 20260504043440 | 36 | 0.0 | 0.0 | 0.00 | 0.02 | 0.00 | 77 | 1011.5 | |
| 20260504042457 | 36 | 0.0 | 0.0 | 0.00 | 0.02 | 0.00 | 77 | 1011.5 | |
| 20260504041951 | 36 | 0.0 | 0.0 | 0.00 | 0.02 | 0.00 | 77 | 1011.5 | |
| 20260504041434 | 36 | 0.0 | 0.0 | 0.00 | 0.02 | 0.00 | 76 | 1011.4 | |
| 20260504040921 | 37 | 0.0 | 0.0 | 0.00 | 0.02 | 0.00 | 76 | 1011.3 | |
| 20260504040418 | 37 | 0.0 | 0.0 | 0.00 | 0.02 | 0.00 | 75 | 1011.3 | |
| 20260504035858 | 37 | 0.0 | 0.0 | 0.00 | 0.02 | 0.02 | 75 | 1011.2 | |
| 20260504035353 | 37 | 0.0 | 0.0 | 0.00 | 0.02 | 0.02 | 74 | 1011.2 | |
| 20260504034833 | 37 | 0.0 | 0.0 | 0.00 | 0.02 | 0.02 | 74 | 1011.2 | |
| 20260504034322 | 37 | 0.0 | 0.0 | 0.00 | 0.02 | 0.02 | 74 | 1011.1 | |
| 20260504033823 | 37 | 0.0 | 0.0 | 0.00 | 0.02 | 0.02 | 73 | 1011.0 | |
| 20260504033259 | 38 | 0.0 | 0.0 | 0.00 | 0.02 | 0.02 | 73 | 1011.0 | |
| 20260504032749 | 38 | 0.0 | 0.0 | 0.00 | 0.02 | 0.02 | 73 | 1011.0 | |
| 20260504032459 | 38 | 0.0 | 0.0 | 0.00 | 0.02 | 0.02 | 73 | 1011.0 | |
| 20260504031733 | 38 | 0.0 | 0.0 | 0.00 | 0.02 | 0.02 | 73 | 1011.1 | |
| 20260504031222 | 38 | 0.0 | 0.0 | 0.00 | 0.02 | 0.02 | 72 | 1011.0 | |
| 20260504030722 | 38 | 0.0 | 0.0 | 0.00 | 0.02 | 0.02 | 72 | 1011.0 | |
| 20260504030204 | 39 | 0.0 | 0.0 | 0.00 | 0.02 | 0.02 | 72 | 1011.0 | |
| 20260504025927 | 39 | 0.0 | 0.0 | 0.00 | 0.02 | 0.02 | 71 | 1011.0 | |
| 20260504025352 | 39 | 0.0 | 0.0 | 0.00 | 0.02 | 0.02 | 71 | 1011.0 |